^^
Saratoga-Weather Station Historical Data
Daily Summary for January 8, 2021 Units:  English    Metric   Both
Daily Weekly Monthly Yearly Custom
  High: Low: Average:
Temperature: 78.3 °F 61.2 °F 67.8 °F
Dew Point: 64.9 °F 56.3 °F 59.9 °F
Humidity: 95% 57% 77%
Wind Speed: 8.1mph 0mph 1.4mph
Wind Gust: 9mph - -
Wind- - SSW
Pressure: 30.2 in 30.1 in -
Precipitation: 0.05 in    
Historical Graphs
 
 
Tabular Data for January 8, 2021
Time Temperature Dew Point Pressure Wind Wind Speed Wind Gust Humidity Rainfall Rate (Hourly) solar
00:01 64.2 °F 58.6 °F 30.2 in Calm   2 mph 82% 0 in 0 W/m2
00:06 64.2 °F 58.6 °F 30.2 in NE 0.9 mph 2 mph 82% 0 in 0 W/m2
00:11 64 °F 58.8 °F 30.2 in WNW 0.9 mph 3 mph 83% 0 in 0 W/m2
00:16 64 °F 58.8 °F 30.2 in Calm   2 mph 83% 0 in 0 W/m2
00:21 64 °F 58.8 °F 30.2 in Calm   2 mph 83% 0 in 0 W/m2
00:26 63.9 °F 58.6 °F 30.2 in Calm   2 mph 83% 0 in 0 W/m2
00:31 63.9 °F 58.6 °F 30.2 in Calm   1 mph 83% 0 in 0 W/m2
00:36 63.9 °F 58.6 °F 30.2 in NE 2 mph 3 mph 83% 0 in 0 W/m2
00:41 63.7 °F 58.5 °F 30.2 in Calm   2 mph 83% 0 in 0 W/m2
00:46 63.7 °F 58.8 °F 30.2 in Calm     84% 0 in 0 W/m2
00:51 63.5 °F 58.6 °F 30.2 in NE 0.9 mph 1 mph 84% 0 in 0 W/m2
00:56 63.3 °F 58.5 °F 30.2 in SE 2 mph 2 mph 84% 0 in 0 W/m2
01:01 63.3 °F 58.5 °F 30.2 in Calm   1 mph 84% 0 in 0 W/m2
01:06 63.3 °F 58.5 °F 30.1 in NW 0.9 mph 2 mph 84% 0 in 0 W/m2
01:11 63.3 °F 58.5 °F 30.1 in WNW 2.9 mph 3 mph 84% 0 in 0 W/m2
01:16 63.3 °F 58.5 °F 30.1 in Calm     84% 0 in 0 W/m2
01:21 63.3 °F 58.5 °F 30.1 in NNW 2.9 mph 4 mph 84% 0 in 0 W/m2
01:26 63.3 °F 58.5 °F 30.1 in NNW 2.9 mph 3 mph 84% 0 in 0 W/m2
01:31 63.3 °F 58.5 °F 30.1 in NNW 0.9 mph 3 mph 84% 0 in 0 W/m2
01:36 63.3 °F 58.5 °F 30.1 in West 2 mph 2 mph 84% 0 in 0 W/m2
01:41 63.3 °F 58.5 °F 30.1 in NW 0.9 mph 3 mph 84% 0 in 0 W/m2
01:46 63.3 °F 58.5 °F 30.1 in Calm   2 mph 84% 0 in 0 W/m2
01:51 63.1 °F 58.3 °F 30.1 in Calm   1 mph 84% 0 in 0 W/m2
01:56 63.1 °F 58.3 °F 30.1 in Calm   3 mph 84% 0 in 0 W/m2
02:01 63.1 °F 58.3 °F 30.1 in Calm   1 mph 84% 0 in 0 W/m2
02:06 63.1 °F 58.3 °F 30.1 in Calm   2 mph 84% 0 in 0 W/m2
02:11 63 °F 57.7 °F 30.1 in Calm   2 mph 83% 0 in 0 W/m2
02:16 63 °F 57.7 °F 30.1 in Calm   1 mph 83% 0 in 0 W/m2
02:21 63 °F 57.7 °F 30.1 in Calm   1 mph 83% 0 in 0 W/m2
02:26 62.8 °F 57.6 °F 30.1 in Calm   2 mph 83% 0 in 0 W/m2
02:31 62.8 °F 57.9 °F 30.1 in Calm     84% 0 in 0 W/m2
02:36 62.6 °F 57.7 °F 30.1 in SSE 2 mph 2 mph 84% 0 in 0 W/m2
02:41 62.4 °F 57.9 °F 30.1 in ESE 0.9 mph 2 mph 85% 0 in 0 W/m2
02:46 62.2 °F 57.7 °F 30.1 in Calm     85% 0 in 0 W/m2
02:51 62.2 °F 57.4 °F 30.1 in Calm   1 mph 84% 0 in 0 W/m2
02:56 62.4 °F 57.9 °F 30.1 in Calm   2 mph 85% 0 in 0 W/m2
03:01 62.2 °F 57.7 °F 30.1 in Calm   1 mph 85% 0 in 0 W/m2
03:06 62.4 °F 57.6 °F 30.1 in ENE 0.9 mph 2 mph 84% 0 in 0 W/m2
03:11 62.4 °F 57.6 °F 30.1 in Calm   1 mph 84% 0 in 0 W/m2
03:16 62.4 °F 57.6 °F 30.1 in Calm     84% 0 in 0 W/m2
03:21 62.4 °F 57.9 °F 30.1 in Calm     85% 0 in 0 W/m2
03:27 62.2 °F 57.7 °F 30.1 in Calm     85% 0 in 0 W/m2
03:32 62.2 °F 57.7 °F 30.1 in ENE 0.9 mph 1 mph 85% 0 in 0 W/m2
03:37 62.2 °F 57.4 °F 30.1 in Calm     84% 0 in 0 W/m2
03:42 62.2 °F 57.7 °F 30.1 in Calm   2 mph 85% 0 in 0 W/m2
03:47 62.2 °F 57.7 °F 30.1 in East 0.9 mph 2 mph 85% 0 in 0 W/m2
03:52 62.2 °F 57.7 °F 30.1 in NE 2 mph 2 mph 85% 0 in 0 W/m2
03:57 62.2 °F 57.7 °F 30.1 in NE 0.9 mph 1 mph 85% 0 in 0 W/m2
04:02 62.2 °F 57.7 °F 30.1 in Calm     85% 0 in 0 W/m2
04:07 62.1 °F 57.6 °F 30.1 in NE 0.9 mph 1 mph 85% 0 in 0 W/m2
04:12 61.9 °F 57.4 °F 30.1 in South 0.9 mph 2 mph 85% 0 in 0 W/m2
04:17 61.9 °F 57.4 °F 30.1 in Calm   2 mph 85% 0 in 0 W/m2
04:22 61.9 °F 57.4 °F 30.1 in West 0.9 mph 1 mph 85% 0 in 0 W/m2
04:27 61.9 °F 57.4 °F 30.1 in Calm     85% 0 in 0 W/m2
04:32 61.9 °F 57.4 °F 30.1 in East 2 mph 3 mph 85% 0 in 0 W/m2
04:37 61.7 °F 57.2 °F 30.1 in Calm   1 mph 85% 0 in 0 W/m2
04:42 61.7 °F 57.2 °F 30.1 in Calm     85% 0 in 0 W/m2
04:47 61.5 °F 57 °F 30.1 in WSW 0.9 mph 2 mph 85% 0 in 0 W/m2
04:52 61.3 °F 56.8 °F 30.1 in Calm   2 mph 85% 0 in 0 W/m2
04:57 61.3 °F 56.8 °F 30.1 in WSW 0.9 mph 2 mph 85% 0 in 0 W/m2
05:02 61.3 °F 56.8 °F 30.1 in Calm   2 mph 85% 0 in 0 W/m2
05:07 61.3 °F 56.8 °F 30.1 in Calm   2 mph 85% 0 in 0 W/m2
05:12 61.3 °F 57.2 °F 30.1 in Calm     86% 0 in 0 W/m2
05:17 61.2 °F 57 °F 30.1 in Calm   1 mph 86% 0 in 0 W/m2
05:22 61.2 °F 57 °F 30.2 in Calm   1 mph 86% 0 in 0 W/m2
05:27 61.2 °F 57 °F 30.2 in Calm     86% 0 in 0 W/m2
05:32 61.2 °F 57 °F 30.2 in West 2.9 mph 4 mph 86% 0 in 0 W/m2
05:37 61.2 °F 56.7 °F 30.2 in WNW 0.9 mph 2 mph 85% 0 in 0 W/m2
05:42 61.2 °F 56.7 °F 30.1 in Calm   1 mph 85% 0 in 5 W/m2
05:47 61.3 °F 56.5 °F 30.2 in WNW 2 mph 2 mph 84% 0 in 5 W/m2
05:52 61.3 °F 56.5 °F 30.2 in West 2 mph 7 mph 84% 0 in 7 W/m2
05:57 61.5 °F 56.7 °F 30.2 in WSW 0.9 mph 2 mph 84% 0 in 9 W/m2
06:02 61.5 °F 56.3 °F 30.2 in Calm   7 mph 83% 0 in 12 W/m2
06:07 61.5 °F 56.3 °F 30.2 in WSW 0.9 mph 2 mph 83% 0 in 21 W/m2
06:12 61.5 °F 56.3 °F 30.2 in West 0.9 mph 2 mph 83% 0 in 25 W/m2
06:17 61.7 °F 56.5 °F 30.2 in WNW 0.9 mph 1 mph 83% 0 in 26 W/m2
06:22 61.7 °F 56.5 °F 30.2 in Calm   2 mph 83% 0 in 21 W/m2
06:27 61.5 °F 56.3 °F 30.2 in WNW 0.9 mph 1 mph 83% 0 in 18 W/m2
06:32 61.5 °F 56.7 °F 30.2 in West 2.9 mph 3 mph 84% 0 in 16 W/m2
06:37 61.5 °F 56.3 °F 30.2 in Calm   1 mph 83% 0 in 18 W/m2
06:42 61.7 °F 56.5 °F 30.2 in West 2 mph 3 mph 83% 0 in 21 W/m2
06:47 61.9 °F 56.7 °F 30.2 in WNW 0.9 mph 2 mph 83% 0 in 26 W/m2
06:52 61.9 °F 56.7 °F 30.2 in Calm     83% 0 in 32 W/m2
06:57 61.9 °F 56.7 °F 30.2 in Calm   2 mph 83% 0 in 44 W/m2
07:02 61.9 °F 56.7 °F 30.2 in Calm   3 mph 83% 0 in 70 W/m2
07:07 62.1 °F 56.8 °F 30.2 in ENE 0.9 mph 3 mph 83% 0 in 83 W/m2
07:12 62.2 °F 57 °F 30.2 in Calm     83% 0 in 88 W/m2
07:17 62.2 °F 56.7 °F 30.2 in NE 0.9 mph 4 mph 82% 0 in 102 W/m2
07:22 62.4 °F 56.8 °F 30.2 in ENE 2 mph 3 mph 82% 0 in 118 W/m2
07:27 62.6 °F 56.7 °F 30.2 in North 2.9 mph 4 mph 81% 0 in 107 W/m2
07:32 62.8 °F 56.8 °F 30.2 in NE 0.9 mph 2 mph 81% 0 in 93 W/m2
07:37 62.8 °F 56.8 °F 30.2 in WNW 0.9 mph 3 mph 81% 0 in 95 W/m2
07:42 62.8 °F 56.8 °F 30.2 in WNW 2 mph 2 mph 81% 0 in 90 W/m2
07:47 63 °F 57 °F 30.2 in WSW 0.9 mph 2 mph 81% 0 in 95 W/m2
07:52 63 °F 57 °F 30.2 in WNW 2.9 mph 7 mph 81% 0 in 95 W/m2
07:57 63 °F 57 °F 30.2 in North 2 mph 5 mph 81% 0 in 95 W/m2
08:02 63 °F 57 °F 30.2 in NW 2 mph 7 mph 81% 0 in 111 W/m2
08:07 63 °F 57 °F 30.2 in Calm   3 mph 81% 0 in 128 W/m2
08:12 63.1 °F 57.2 °F 30.2 in NE 2 mph 3 mph 81% 0 in 146 W/m2
08:17 63.3 °F 57.4 °F 30.2 in NNE 0.9 mph 1 mph 81% 0 in 171 W/m2
08:22 63.5 °F 57.6 °F 30.2 in ESE 2 mph 4 mph 81% 0 in 206 W/m2
08:27 63.9 °F 57.6 °F 30.2 in Calm   4 mph 80% 0 in 211 W/m2
08:32 64.2 °F 57.9 °F 30.2 in NE 2.9 mph 3 mph 80% 0 in 171 W/m2
08:37 64.4 °F 58.1 °F 30.2 in ESE 0.9 mph 4 mph 80% 0 in 144 W/m2
08:42 64.8 °F 58.1 °F 30.2 in North 2.9 mph 4 mph 79% 0 in 144 W/m2
08:47 64.9 °F 57.9 °F 30.2 in WNW 2 mph 3 mph 78% 0 in 186 W/m2
08:52 65.1 °F 58.5 °F 30.2 in WNW 2.9 mph 4 mph 79% 0 in 211 W/m2
08:57 65.1 °F 58.5 °F 30.2 in WNW 2.9 mph 3 mph 79% 0 in 188 W/m2
09:02 65.5 °F 58.5 °F 30.2 in ENE 0.9 mph 6 mph 78% 0 in 165 W/m2
09:07 65.3 °F 58.3 °F 30.2 in Calm   2 mph 78% 0 in 162 W/m2
09:12 65.1 °F 58.1 °F 30.2 in Calm   6 mph 78% 0 in 220 W/m2
09:17 65.1 °F 58.5 °F 30.2 in NNW 2 mph 2 mph 79% 0 in 213 W/m2
09:22 65.1 °F 58.5 °F 30.2 in Calm   2 mph 79% 0 in 195 W/m2
09:27 65.3 °F 59 °F 30.2 in ESE 2 mph 3 mph 80% 0 in 193 W/m2
09:32 65.5 °F 58.8 °F 30.2 in ENE 4 mph 4 mph 79% 0 in 179 W/m2
09:37 65.5 °F 58.8 °F 30.2 in NW 2.9 mph 4 mph 79% 0 in 199 W/m2
09:42 65.5 °F 59.2 °F 30.2 in NW 0.9 mph 3 mph 80% 0 in 318 W/m2
09:47 65.5 °F 58.8 °F 30.2 in ESE 0.9 mph 4 mph 79% 0 in 195 W/m2
09:52 65.8 °F 59.2 °F 30.2 in West 2.9 mph 4 mph 79% 0 in 575 W/m2
09:57 66 °F 59 °F 30.2 in Calm   4 mph 78% 0 in 584 W/m2
10:02 66.7 °F 60.1 °F 30.2 in East 2.9 mph 5 mph 79% 0 in 536 W/m2
10:07 67.3 °F 59.9 °F 30.2 in WNW 2 mph 4 mph 77% 0 in 149 W/m2
10:12 67.5 °F 59.5 °F 30.2 in North 0.9 mph 5 mph 76% 0 in 230 W/m2
10:17 67.6 °F 59.7 °F 30.2 in WNW 2.9 mph 5 mph 76% 0 in 631 W/m2
10:22 68.2 °F 60.3 °F 30.2 in NE 2.9 mph 6 mph 76% 0 in 631 W/m2
10:27 68.7 °F 60.8 °F 30.2 in ENE 2 mph 3 mph 76% 0 in 643 W/m2
10:32 69.4 °F 60.4 °F 30.2 in WNW 2.9 mph 6 mph 73% 0 in 680 W/m2
10:37 69.6 °F 60.3 °F 30.2 in NNW 0.9 mph 4 mph 72% 0 in 694 W/m2
10:42 69.8 °F 61.2 °F 30.2 in NNE 4.9 mph 5 mph 74% 0 in 712 W/m2
10:47 70.2 °F 60.6 °F 30.2 in ENE 2 mph 7 mph 72% 0 in 689 W/m2
10:52 70.2 °F 60.3 °F 30.2 in Calm   3 mph 71% 0 in 322 W/m2
10:57 70.2 °F 60.6 °F 30.2 in NNW 2 mph 3 mph 72% 0 in 780 W/m2
11:02 70.3 °F 60.8 °F 30.2 in ENE 4.9 mph 6 mph 72% 0 in 742 W/m2
11:07 70.5 °F 61 °F 30.2 in Calm   2 mph 72% 0 in 798 W/m2
11:12 71.2 °F 61.3 °F 30.2 in WNW 2.9 mph 6 mph 71% 0 in 791 W/m2
11:17 71.4 °F 59.9 °F 30.1 in WNW 2.9 mph 5 mph 67% 0 in 795 W/m2
11:22 71.2 °F 60.1 °F 30.1 in WNW 0.9 mph 4 mph 68% 0 in 689 W/m2
11:27 71.4 °F 60.8 °F 30.1 in ESE 2 mph 6 mph 69% 0 in 612 W/m2
11:32 71.8 °F 60.3 °F 30.1 in West 2 mph 3 mph 67% 0 in 840 W/m2
11:37 71.8 °F 59 °F 30.1 in North 0.9 mph 5 mph 64% 0 in 912 W/m2
11:42 72.1 °F 60.6 °F 30.1 in East 0.9 mph 4 mph 67% 0 in 932 W/m2
11:47 73 °F 61.9 °F 30.1 in SE 0.9 mph 2 mph 68% 0 in 993 W/m2
11:52 73.9 °F 61.3 °F 30.1 in ENE 2 mph 4 mph 65% 0 in 998 W/m2
11:57 74.1 °F 61.2 °F 30.1 in ENE 2 mph 4 mph 64% 0 in 415 W/m2
12:03 73.8 °F 61.7 °F 30.1 in ENE 2 mph 4 mph 66% 0 in 401 W/m2
12:08 73.2 °F 60.8 °F 30.1 in ENE 2 mph 3 mph 65% 0 in 357 W/m2
12:13 73 °F 61 °F 30.1 in East 2 mph 3 mph 66% 0 in 294 W/m2
12:18 72.9 °F 61.3 °F 30.1 in Calm   1 mph 67% 0 in 272 W/m2
12:23 72.9 °F 61.3 °F 30.1 in SW 2 mph 2 mph 67% 0 in 243 W/m2
12:28 72.7 °F 60.6 °F 30.1 in SE 4.9 mph 7 mph 66% 0 in 225 W/m2
12:33 72.1 °F 60.1 °F 30.1 in Calm   3 mph 66% 0 in 288 W/m2
12:38 72.5 °F 61.7 °F 30.1 in ESE 2.9 mph 6 mph 69% 0 in 984 W/m2
12:43 73 °F 61.5 °F 30.1 in ESE 2 mph 6 mph 67% 0 in 1032 W/m2
12:48 73.2 °F 61.2 °F 30.1 in NNW 0.9 mph 3 mph 66% 0 in 387 W/m2
12:53 73 °F 61.5 °F 30.1 in NE 2 mph 6 mph 67% 0 in 371 W/m2
12:58 73 °F 61.5 °F 30.1 in ENE 0.9 mph 4 mph 67% 0 in 1056 W/m2
13:03 73.6 °F 62.4 °F 30.1 in ESE 0.9 mph 6 mph 68% 0 in 357 W/m2
13:08 73.8 °F 62.1 °F 30.1 in SSE 2 mph 2 mph 67% 0 in 330 W/m2
13:13 73.6 °F 61.9 °F 30.1 in NE 2 mph 5 mph 67% 0 in 332 W/m2
13:18 73.4 °F 61.3 °F 30.1 in NNW 2.9 mph 3 mph 66% 0 in 468 W/m2
13:23 73.2 °F 61.5 °F 30.1 in East 4 mph 5 mph 67% 0 in 380 W/m2
13:28 73.2 °F 61.5 °F 30.1 in ENE 2 mph 3 mph 67% 0 in 316 W/m2
13:33 73 °F 61.5 °F 30.1 in ESE 2 mph 2 mph 67% 0 in 285 W/m2
13:38 73 °F 61.5 °F 30.1 in ENE 2.9 mph 4 mph 67% 0 in 396 W/m2
13:43 73 °F 61.9 °F 30.1 in SE 0.9 mph 2 mph 68% 0 in 362 W/m2
13:48 73.8 °F 61.7 °F 30.1 in NNW 0.9 mph 2 mph 66% 0 in 1067 W/m2
13:53 74.3 °F 61.3 °F 30.1 in NE 2 mph 4 mph 64% 0 in 1069 W/m2
13:58 74.3 °F 61.7 °F 30.1 in NE 4 mph 4 mph 65% 0 in 308 W/m2
14:03 74.1 °F 61.2 °F 30.1 in ESE 0.9 mph 2 mph 64% 0 in 220 W/m2
14:08 73.9 °F 61.3 °F 30.1 in Calm   4 mph 65% 0 in 156 W/m2
14:13 73.8 °F 60.8 °F 30.1 in NW 0.9 mph 5 mph 64% 0 in 139 W/m2
14:18 73.4 °F 61 °F 30.1 in NW 0.9 mph 3 mph 65% 0 in 153 W/m2
14:23 73.2 °F 60.8 °F 30.1 in North 2 mph 5 mph 65% 0 in 167 W/m2
14:28 73 °F 61.5 °F 30.1 in West 2 mph 8 mph 67% 0 in 174 W/m2
14:33 72.9 °F 61.7 °F 30.1 in West 2.9 mph 6 mph 68% 0 in 181 W/m2
14:38 72.3 °F 62.1 °F 30.1 in WSW 2.9 mph 8 mph 70% 0 in 200 W/m2
14:43 72.1 °F 61.3 °F 30.1 in West 2 mph 4 mph 69% 0 in 204 W/m2
14:48 72.1 °F 61.9 °F 30.1 in West 2 mph 6 mph 70% 0 in 169 W/m2
14:53 72 °F 61.7 °F 30.1 in West 2.9 mph 6 mph 70% 0 in 227 W/m2
14:58 72.3 °F 62.1 °F 30.1 in WSW 2.9 mph 6 mph 70% 0 in 773 W/m2
15:03 73.2 °F 62.4 °F 30.1 in West 4 mph 4 mph 69% 0 in 633 W/m2
15:08 74.5 °F 62.8 °F 30.1 in West 4 mph 7 mph 67% 0 in 1139 W/m2
15:13 75 °F 62.1 °F 30.1 in West 6 mph 6 mph 64% 0 in 779 W/m2
15:18 75.6 °F 63.3 °F 30.1 in WSW 4 mph 4 mph 66% 0 in 710 W/m2
15:23 75.7 °F 62.2 °F 30.1 in West 6 mph 8 mph 63% 0 in 740 W/m2
15:28 75.6 °F 62.1 °F 30.1 in West 4 mph 6 mph 63% 0 in 1053 W/m2
15:33 75.7 °F 61.9 °F 30.1 in WNW 6.9 mph 8 mph 62% 0 in 979 W/m2
15:38 75.6 °F 62.1 °F 30.1 in NW 4 mph 7 mph 63% 0 in 849 W/m2
15:43 75.4 °F 61.5 °F 30.1 in WNW 4 mph 5 mph 62% 0 in 374 W/m2
15:48 75.6 °F 61.2 °F 30.1 in NW 2.9 mph 6 mph 61% 0 in 963 W/m2
15:53 76.1 °F 61.2 °F 30.1 in North 0.9 mph 3 mph 60% 0 in 881 W/m2
15:58 76.8 °F 61.3 °F 30.1 in NE 2 mph 5 mph 59% 0 in 884 W/m2
16:03 77.4 °F 61.3 °F 30.1 in ENE 4.9 mph 9 mph 58% 0 in 851 W/m2
16:08 78.1 °F 62.6 °F 30.1 in East 2.9 mph 3 mph 59% 0 in 826 W/m2
16:13 78.3 °F 61.7 °F 30.1 in SW 2 mph 5 mph 57% 0 in 816 W/m2
16:18 77.9 °F 61.9 °F 30.1 in WNW 2.9 mph 6 mph 58% 0 in 234 W/m2
16:23 77.2 °F 61.3 °F 30.1 in NW 2.9 mph 4 mph 58% 0 in 199 W/m2
16:28 76.6 °F 61.2 °F 30.1 in North 2 mph 5 mph 59% 0 in 756 W/m2
16:33 76.6 °F 61.2 °F 30.1 in WSW 2.9 mph 7 mph 59% 0 in 262 W/m2
16:38 76.5 °F 61.5 °F 30.1 in WNW 6.9 mph 7 mph 60% 0 in 729 W/m2
16:43 76.5 °F 61 °F 30.1 in West 2 mph 7 mph 59% 0 in 816 W/m2
16:48 76.6 °F 61.2 °F 30.1 in WNW 2.9 mph 7 mph 59% 0 in 810 W/m2
16:53 77.2 °F 61.7 °F 30.1 in WSW 4.9 mph 7 mph 59% 0 in 795 W/m2
16:58 76.8 °F 61 °F 30.1 in West 4 mph 5 mph 58% 0 in 301 W/m2
17:03 76.5 °F 60.6 °F 30.1 in West 2 mph 4 mph 58% 0 in 229 W/m2
17:08 76.3 °F 61.3 °F 30.1 in WNW 4 mph 4 mph 60% 0 in 216 W/m2
17:13 76.3 °F 61.9 °F 30.1 in NNE 8.1 mph 8 mph 61% 0 in 221 W/m2
17:18 76.3 °F 61.3 °F 30.1 in West 2.9 mph 5 mph 60% 0 in 214 W/m2
17:23 75.9 °F 61.5 °F 30.1 in NW 2.9 mph 4 mph 61% 0 in 169 W/m2
17:28 75.6 °F 60.6 °F 30.1 in NNW 2.9 mph 6 mph 60% 0 in 139 W/m2
17:33 75.4 °F 61 °F 30.1 in ESE 2.9 mph 5 mph 61% 0 in 125 W/m2
17:38 75.4 °F 61 °F 30.1 in ENE 0.9 mph 3 mph 61% 0 in 134 W/m2
17:43 75.4 °F 61 °F 30.1 in West 4 mph 5 mph 61% 0 in 139 W/m2
17:48 75 °F 60.6 °F 30.1 in NNE 2 mph 7 mph 61% 0 in 153 W/m2
17:53 75 °F 61.2 °F 30.1 in WNW 4 mph 7 mph 62% 0 in 155 W/m2
17:58 74.8 °F 61 °F 30.1 in NNW 2 mph 4 mph 62% 0 in 151 W/m2
18:03 74.8 °F 61 °F 30.1 in WSW 2.9 mph 5 mph 62% 0 in 132 W/m2
18:08 74.8 °F 61 °F 30.1 in NNW 0.9 mph 3 mph 62% 0 in 113 W/m2
18:13 74.7 °F 60.8 °F 30.1 in West 2.9 mph 4 mph 62% 0 in 105 W/m2
18:18 74.8 °F 61 °F 30.1 in Calm   3 mph 62% 0 in 114 W/m2
18:23 74.8 °F 61 °F 30.1 in East 2 mph 3 mph 62% 0 in 98 W/m2
18:28 74.8 °F 61.3 °F 30.1 in Calm   3 mph 63% 0 in 97 W/m2
18:33 74.8 °F 61.3 °F 30.1 in ENE 2 mph 4 mph 63% 0 in 95 W/m2
18:38 74.7 °F 60.8 °F 30.1 in ESE 0.9 mph 4 mph 62% 0 in 86 W/m2
18:43 74.5 °F 60.6 °F 30.1 in NE 0.9 mph 2 mph 62% 0 in 88 W/m2
18:48 74.5 °F 60.6 °F 30.1 in ESE 2 mph 4 mph 62% 0 in 90 W/m2
18:53 74.5 °F 60.6 °F 30.1 in ENE 2 mph 3 mph 62% 0 in 86 W/m2
18:58 74.5 °F 60.6 °F 30.1 in NNW 2 mph 4 mph 62% 0 in 70 W/m2
19:03 74.5 °F 60.1 °F 30.1 in North 0.9 mph 3 mph 61% 0 in 65 W/m2
19:08 74.5 °F 60.1 °F 30.1 in ENE 0.9 mph 2 mph 61% 0 in 49 W/m2
19:13 74.5 °F 60.1 °F 30.1 in Calm   4 mph 61% 0 in 42 W/m2
19:18 74.5 °F 61 °F 30.1 in East 2.9 mph 8 mph 63% 0 in 42 W/m2
19:23 74.1 °F 62.1 °F 30.1 in ENE 0.9 mph 2 mph 66% 0 in 51 W/m2
19:28 73.8 °F 62.1 °F 30.1 in East 0.9 mph 8 mph 67% 0 in 56 W/m2
19:33 73 °F 61.9 °F 30.1 in SW 2 mph 2 mph 68% 0 in 60 W/m2
19:38 72.7 °F 61.5 °F 30.1 in Calm   2 mph 68% 0 in 65 W/m2
19:43 72.3 °F 61.5 °F 30.1 in Calm     69% 0 in 65 W/m2
19:48 72.3 °F 62.4 °F 30.1 in ESE 2 mph 2 mph 71% 0 in 67 W/m2
19:53 72 °F 62.1 °F 30.1 in Calm   1 mph 71% 0 in 72 W/m2
19:58 71.4 °F 61.9 °F 30.1 in ESE 0.9 mph 3 mph 72% 0 in 79 W/m2
20:03 71.2 °F 63 °F 30.1 in Calm   2 mph 75% 0 in 86 W/m2
20:08 71.1 °F 63.5 °F 30.1 in Calm   3 mph 77% 0 in 70 W/m2
20:13 70.7 °F 64.2 °F 30.1 in Calm     80% 0.01 in 69 W/m2
20:18 70.3 °F 64.6 °F 30.1 in Calm   1 mph 82% 0.02 in 69 W/m2
20:23 70 °F 64.9 °F 30.1 in Calm     84% 0.02 in 70 W/m2
20:28 69.1 °F 64.4 °F 30.1 in Calm     85% 0.03 in 69 W/m2
20:34 68.5 °F 64.2 °F 30.1 in Calm   1 mph 86% 0.04 in 63 W/m2
20:39 67.8 °F 64.2 °F 30.1 in Calm     88% 0.04 in 53 W/m2
20:44 67.6 °F 64 °F 30.1 in WSW 0.9 mph 1 mph 88% 0.04 in 44 W/m2
20:49 67.1 °F 63.7 °F 30.1 in Calm     89% 0.05 in 39 W/m2
20:54 66.7 °F 63.7 °F 30.1 in Calm   1 mph 90% 0.05 in 35 W/m2
20:59 66.6 °F 63.5 °F 30.1 in Calm     90% 0.05 in 26 W/m2
21:04 66.4 °F 63.7 °F 30.1 in WSW 0.9 mph 1 mph 91% 0.05 in 19 W/m2
21:09 66 °F 63 °F 30.1 in WSW 0.9 mph 2 mph 90% 0.05 in 16 W/m2
21:14 65.7 °F 63 °F 30.1 in Calm     91% 0.04 in 16 W/m2
21:19 65.7 °F 63 °F 30.1 in Calm     91% 0.03 in 14 W/m2
21:24 65.5 °F 63.1 °F 30.1 in Calm     92% 0.02 in 11 W/m2
21:29 65.3 °F 63 °F 30.1 in Calm   1 mph 92% 0.02 in 9 W/m2
21:34 65.1 °F 62.8 °F 30.1 in Calm     92% 0.01 in 9 W/m2
21:39 64.9 °F 62.6 °F 30.1 in Calm   1 mph 92% 0.01 in 5 W/m2
21:44 64.8 °F 62.6 °F 30.1 in Calm     93% 0.01 in 0 W/m2
21:49 64.8 °F 62.6 °F 30.1 in WSW 0.9 mph 2 mph 93% 0 in 0 W/m2
21:54 64.8 °F 62.6 °F 30.1 in Calm   1 mph 93% 0 in 0 W/m2
21:59 64.6 °F 62.4 °F 30.1 in WSW 0.9 mph 2 mph 93% 0 in 0 W/m2
22:04 64.6 °F 62.4 °F 30.1 in WSW 0.9 mph 2 mph 93% 0 in 0 W/m2
22:09 64.6 °F 62.4 °F 30.1 in WSW 0.9 mph 1 mph 93% 0 in 0 W/m2
22:14 64.4 °F 62.6 °F 30.1 in Calm   2 mph 94% 0 in 0 W/m2
22:19 64.2 °F 62.4 °F 30.1 in Calm   1 mph 94% 0 in 0 W/m2
22:24 64.2 °F 62.4 °F 30.1 in Calm   2 mph 94% 0 in 0 W/m2
22:29 64 °F 62.2 °F 30.1 in Calm   1 mph 94% 0 in 0 W/m2
22:34 63.9 °F 62.1 °F 30.1 in Calm     94% 0 in 0 W/m2
22:39 63.9 °F 62.1 °F 30.1 in Calm     94% 0 in 0 W/m2
22:44 63.7 °F 61.9 °F 30.1 in Calm     94% 0 in 0 W/m2
22:49 63.7 °F 61.9 °F 30.1 in Calm     94% 0 in 0 W/m2
22:54 63.7 °F 61.9 °F 30.1 in Calm     94% 0 in 0 W/m2
22:59 63.5 °F 61.7 °F 30.1 in Calm     94% 0 in 0 W/m2
23:04 63.3 °F 61.5 °F 30.1 in Calm     94% 0 in 0 W/m2
23:09 63.3 °F 61.5 °F 30.1 in Calm     94% 0 in 0 W/m2
23:14 63.3 °F 61.9 °F 30.1 in Calm     95% 0 in 0 W/m2
23:19 63.3 °F 61.5 °F 30.1 in Calm     94% 0 in 0 W/m2
23:24 63.3 °F 61.9 °F 30.1 in Calm     95% 0 in 0 W/m2
23:29 63.3 °F 61.9 °F 30.1 in Calm     95% 0 in 0 W/m2
23:34 63.1 °F 61.7 °F 30.1 in Calm     95% 0 in 0 W/m2
23:39 63.3 °F 61.9 °F 30.1 in Calm     95% 0 in 0 W/m2
23:44 63.1 °F 61.7 °F 30.1 in Calm     95% 0 in 0 W/m2
23:49 63.1 °F 61.7 °F 30.1 in Calm     95% 0 in 0 W/m2
23:54 63.1 °F 61.7 °F 30.1 in Calm     95% 0 in 0 W/m2
23:59 63.3 °F 61.9 °F 30.1 in Calm     95% 0 in 0 W/m2
Juneau County Weather
Compliments of Weather Underground - 2 mb